Location: Leuk
(46.3174°N, 7.6341°E)
Time: 20:46:48
(UTC+00:00)

Cosmos 1666 Rocket - Pass Details

Date: 09 March 2021
Orbit: 605 x 632 km, 82.5° (Epoch: 20 April)

Event Time Altitude Azimuth Distance (km) Brightness Sun altitude
Rises 04:51:10 0° 342° (NNW) 2,887 6.9 -11.6°
Reaches altitude 10° 04:53:32 10° 334° (NNW) 1,981 5.9 -11.2°
Maximum altitude 04:57:29 34° 269° (W) 1,020 4.1 -10.5°
Drops below altitude 10° 05:01:27 10° 205° (SSW) 1,981 5.9 -9.8°
Sets 05:03:49 0° 196° (SSW) 2,887 6.8 -9.4°
